[[{"header":{"parameterUnit":"m.s-1","parameterCategory":1,"la1":30.2991,"la2":30.254,"lo1":-89.0895,"lo2":-89.0444,"dy":0.0017,"dx":0.0017,"nx":28,"ny":28,"refTime":"2023-09-24T21:00:00:Z","depth":0,"parameterNumber":2,"parameterNumberName":"U-component_of_WINDS"},"data":[0,0,0,0,0,0,0,0,0,0,0,0,0,0,0,0,0,0,0,0,0,0,0,0,0,0,0,0,0,0,0,0,0,0,0,0,0,0,0,0,0,0,0,0,0,0,0,0,0,0,0,0,0,0,0,0,0,0,-0.1245,-0.1243,0,-0.1097,-0.1096,-0.1094,-0.1038,-0.1038,-0.1039,-0.1039,-0.0886,-0.0882,-0.0878,0,0,0,0,0,0,0,0,0,0,0,0,0,-0.1479,-0.1475,-0.1245,-0.1243,-0.1241,-0.1098,-0.1096,-0.1093,-0.1038,-0.1038,-0.1039,-0.1039,-0.0888,-0.0883,-0.0877,0,0,0,0,0,0,0,0,0,0,0,0,0,-0.1359,-0.1473,-0.1245,-0.1196,-0.119,-0.1098,-0.1095,-0.1093,-0.1038,-0.1038,-0.1039,-0.1039,-0.089,-0.0883,-0.0877,-0.0822,0,0,-0.0856,-0.0853,0,0,0,0,0,0,0,0,-0.1366,-0.135,-0.1205,-0.1199,-0.1192,-0.1087,-0.1122,-0.1002,-0.1037,-0.1095,-0.1039,-0.104,-0.0952,-0.0941,-0.0911,-0.0815,-0.0808,-0.0855,-0.0851,-0.0848,-0.0847,0,0,0,0,0,0,0,-0.1374,-0.1356,-0.1186,-0.1203,-0.1195,-0.1182,-0.1165,-0.1099,-0.1022,-0.109,-0.1086,-0.1069,-0.0949,-0.0918,-0.0907,-0.0806,-0.0856,-0.085,-0.0846,-0.0843,-0.066,-0.0659,0,0,0,0,0,0,-0.1391,-0.1364,-0.1191,-0.1182,-0.1283,-0.1177,-0.1159,-0.112,-0.1023,-0.1008,-0.1069,-0.1067,-0.0929,-0.0915,-0.0902,-0.0833,-0.0849,-0.0842,-0.0838,-0.0661,-0.066,-0.0659,0,0,0,0,0,0,-0.1396,-0.1376,-0.1197,-0.1272,-0.1248,-0.1172,-0.1129,-0.1117,-0.1085,-0.1006,-0.0992,-0.1051,-0.0929,-0.0911,-0.0843,-0.0827,-0.0839,-0.0833,-0.0662,-0.066,-0.0659,-0.0693,0,0,0,0,0,0,-0.1403,-0.1378,-0.1356,-0.1271,-0.1244,-0.114,-0.1128,-0.1113,-0.1074,-0.1071,-0.0986,-0.0973,-0.0928,-0.0853,-0.0836,-0.0818,-0.0828,-0.0663,-0.0661,-0.0659,-0.0693,-0.0693,-0.0694,0,0,0,0,0,-0.1411,-0.1371,-0.1355,-0.1335,-0.1215,-0.1139,-0.1124,-0.1074,-0.1073,-0.1051,-0.1001,-0.0975,-0.0832,-0.0847,-0.0827,-0.0806,-0.0663,-0.0661,-0.066,-0.0693,-0.0693,-0.0694,0,0,0,0,0,0,-0.1454,-0.1359,-0.134,-0.1271,-0.1214,-0.113,-0.11,-0.1075,-0.1017,-0.1016,-0.0956,-0.0937,-0.0874,-0.0833,-0.0852,-0.075,-0.0746,-0.074,-0.0778,-0.0778,-0.0778,-0.0789,-0.0822,0,0,0,0,0,-0.1456,-0.1402,-0.1322,-0.1269,-0.1241,-0.1176,-0.1141,-0.1108,-0.1046,-0.1021,-0.0966,-0.0907,-0.0848,-0.0811,-0.0752,-0.0688,-0.0669,-0.0664,-0.0664,-0.0665,-0.066,-0.0625,-0.0622,-0.0652,-0.0652,-0.0652,0,0,-0.1458,-0.1399,-0.1369,-0.1276,-0.1227,-0.1174,-0.1156,-0.1099,-0.1059,-0.1012,-0.0945,-0.0903,-0.0833,-0.0767,-0.0735,-0.0731,-0.0648,-0.0662,-0.0663,-0.0658,-0.0622,-0.062,-0.0617,-0.0651,-0.0651,-0.0652,0,0,-0.1434,-0.1384,-0.1335,-0.1288,-0.1216,-0.1174,-0.1162,-0.1082,-0.1053,-0.0984,-0.0949,-0.0901,-0.0801,-0.0753,-0.0716,-0.0679,-0.0654,-0.0662,-0.0661,-0.0628,-0.0625,-0.0623,-0.061,-0.0606,-0.0657,-0.0657,-0.0657,0,-0.1446,-0.1364,-0.1313,-0.1259,-0.122,-0.1177,-0.1128,-0.1084,-0.0997,-0.0971,-0.0968,-0.0844,-0.0794,-0.0717,-0.0708,-0.0679,-0.0664,-0.067,-0.063,-0.0627,-0.0624,-0.0611,-0.0606,-0.0659,-0.0659,-0.0659,-0.0658,0,-0.1382,-0.1326,-0.1295,-0.1213,-0.117,-0.1119,-0.1061,-0.1024,-0.0996,-0.0955,-0.0887,-0.0826,-0.0755,-0.0735,-0.0705,-0.0654,-0.0654,-0.0641,-0.0636,-0.0623,-0.061,-0.0605,-0.0661,-0.066,-0.066,-0.066,0,0,-0.1379,-0.1272,-0.1261,-0.1224,-0.1143,-0.1099,-0.1047,-0.0979,-0.0949,-0.0891,-0.0846,-0.0765,-0.0753,-0.0711,-0.0677,-0.0647,-0.0623,-0.0638,-0.0636,-0.0638,-0.0564,-0.0574,-0.0569,-0.0607,-0.0606,-0.0605,-0.057,0,-0.1345,-0.1249,-0.1203,-0.1128,-0.1076,-0.1037,-0.0991,-0.0937,-0.0898,-0.0848,-0.0805,-0.0748,-0.0737,-0.0712,-0.0681,-0.0633,-0.0607,-0.0635,-0.0565,-0.0563,-0.0583,-0.0562,-0.0571,-0.0541,-0.0565,-0.0564,-0.0563,0,-0.1291,-0.1235,-0.1155,-0.1082,-0.1059,-0.1019,-0.0954,-0.0908,-0.0846,-0.082,-0.0775,-0.0742,-0.0687,-0.0687,-0.061,-0.063,-0.0599,-0.0572,-0.0569,-0.056,-0.0562,-0.0552,-0.053,-0.0526,-0.0554,-0.0555,-0.0556,0,-0.1298,-0.1202,-0.1142,-0.1112,-0.1025,-0.0998,-0.0961,-0.09,-0.0863,-0.0807,-0.0783,-0.0721,-0.0687,-0.064,-0.0593,-0.0597,-0.0521,-0.0517,-0.0498,-0.0499,-0.0482,-0.0484,-0.0455,-0.0463,-0.0463,-0.0464,-0.0464,0,-0.1264,-0.1216,-0.1144,-0.1107,-0.1053,-0.1002,-0.0951,-0.0911,-0.0858,-0.0813,-0.0775,-0.0734,-0.0674,-0.0625,-0.0588,-0.0531,-0.0515,-0.0493,-0.0483,-0.0496,-0.0499,-0.0474,-0.0475,-0.0462,-0.0463,-0.0463,-0.0463,0,-0.1261,-0.121,-0.1143,-0.1067,-0.1047,-0.1011,-0.0947,-0.091,-0.087,-0.0814,-0.0798,-0.0735,-0.0676,-0.0625,-0.0547,-0.0522,-0.0463,-0.0452,-0.0484,-0.0479,-0.0463,-0.0465,-0.0416,-0.0408,-0.0423,-0.0423,-0.0423,0,-0.1242,-0.1205,-0.1127,-0.1095,-0.1058,-0.1006,-0.0969,-0.0919,-0.0881,-0.0811,-0.0783,-0.0722,-0.067,-0.0579,-0.0526,-0.0467,-0.0453,-0.0441,-0.0444,-0.0459,-0.0453,-0.0456,-0.0453,-0.044,-0.044,-0.044,-0.0441,0,-0.1215,-0.1193,-0.1141,-0.108,-0.1037,-0.0987,-0.0936,-0.0912,-0.0852,-0.0812,-0.0753,-0.0713,-0.0635,-0.0575,-0.0511,-0.0473,-0.0447,-0.044,-0.0433,-0.0445,-0.0465,-0.0454,-0.0485,-0.0441,-0.0441,-0.0441,-0.0441,-0.0441,-0.1204,-0.117,-0.111,-0.1054,-0.101,-0.0964,-0.0927,-0.0883,-0.0832,-0.0765,-0.0738,-0.0678,-0.062,-0.0531,-0.0494,-0.0446,-0.0441,-0.043,-0.0427,-0.0425,-0.0428,-0.0474,-0.0434,-0.0434,-0.0434,-0.0434,-0.0434,0,-0.1175,-0.1135,-0.1084,-0.1015,-0.0971,-0.0952,-0.0895,-0.086,-0.0807,-0.0756,-0.0706,-0.0639,-0.0582,-0.0526,-0.0466,-0.0439,-0.0426,-0.0425,-0.0426,-0.0418,-0.0435,-0.0448,-0.0436,-0.0436,-0.0436,-0.0436,-0.0437,-0.0437,-0.1155,-0.1097,-0.1068,-0.0988,-0.0949,-0.089,-0.0859,-0.0817,-0.0776,-0.0702,-0.0655,-0.0619,-0.0566,-0.0503,-0.045,-0.0435,-0.0415,-0.0417,-0.0399,-0.0416,-0.0416,-0.0417,-0.0428,-0.0413,-0.0413,-0.0385,-0.0385,-0.0385]},{"header":{"parameterUnit":"m.s-1","parameterCategory":1,"la1":30.2991,"la2":30.254,"lo1":-89.0895,"lo2":-89.0444,"dy":0.0017,"dx":0.0017,"nx":28,"ny":28,"refTime":"2023-09-24T21:00:00:Z","depth":0,"parameterNumber":3,"parameterNumberName":"V-component_of_WINDS"},"data":[0,0,0,0,0,0,0,0,0,0,0,0,0,0,0,0,0,0,0,0,0,0,0,0,0,0,0,0,0,0,0,0,0,0,0,0,0,0,0,0,0,0,0,0,0,0,0,0,0,0,0,0,0,0,0,0,0,0,4.3253,4.3253,0,4.3271,4.3271,4.3272,4.3295,4.3296,4.3296,4.3296,4.3313,4.3313,4.3313,0,0,0,0,0,0,0,0,0,0,0,0,0,4.3238,4.3238,4.3253,4.3253,4.3254,4.3271,4.3271,4.3272,4.3295,4.3296,4.3296,4.3297,4.3313,4.3313,4.3313,0,0,0,0,0,0,0,0,0,0,0,0,0,4.3249,4.3238,4.3253,4.3268,4.3269,4.3271,4.3271,4.3272,4.3295,4.3296,4.3296,4.3297,4.3313,4.3313,4.3313,4.3302,0,0,4.3313,4.3314,0,0,0,0,0,0,0,0,4.3248,4.3249,4.3265,4.3267,4.3268,4.3282,4.3272,4.3282,4.3295,4.3285,4.3296,4.3297,4.3302,4.3303,4.3305,4.3303,4.3303,4.3314,4.3314,4.3314,4.3314,0,0,0,0,0,0,0,4.3247,4.3249,4.326,4.3265,4.3267,4.3273,4.3275,4.3274,4.329,4.3286,4.3288,4.329,4.3303,4.3305,4.3306,4.3304,4.3313,4.3314,4.3314,4.3314,4.3293,4.3292,0,0,0,0,0,0,4.3245,4.3248,4.326,4.3261,4.326,4.3272,4.3275,4.3277,4.329,4.3293,4.3289,4.3291,4.3304,4.3305,4.3306,4.3294,4.3314,4.3314,4.3314,4.3293,4.3293,4.3292,0,0,0,0,0,0,4.3244,4.3245,4.3259,4.3255,4.3257,4.3272,4.3274,4.3277,4.3279,4.3293,4.3295,4.3288,4.3305,4.3306,4.3303,4.3295,4.3314,4.3314,4.3294,4.3293,4.3292,4.3269,0,0,0,0,0,0,4.3244,4.3245,4.3241,4.3255,4.3257,4.3256,4.3273,4.3277,4.3279,4.3281,4.3292,4.3295,4.3305,4.3303,4.3303,4.3295,4.3314,4.3295,4.3294,4.3293,4.327,4.3267,4.3264,0,0,0,0,0,4.3243,4.3234,4.3241,4.3242,4.3253,4.3255,4.3257,4.327,4.3278,4.3274,4.3283,4.3294,4.3296,4.3302,4.3303,4.3295,4.3295,4.3294,4.3293,4.3271,4.3268,4.3264,0,0,0,0,0,0,4.3218,4.3236,4.3244,4.3239,4.3246,4.3259,4.3255,4.3265,4.3269,4.3271,4.3286,4.3288,4.3283,4.3289,4.3296,4.3284,4.3297,4.3296,4.3281,4.3277,4.3274,4.3273,4.3314,0,0,0,0,0,4.3213,4.3214,4.3228,4.3222,4.3225,4.3239,4.3241,4.3251,4.3258,4.326,4.3269,4.3275,4.3277,4.3277,4.328,4.3271,4.3274,4.3266,4.3263,4.3261,4.3259,4.3254,4.3251,4.3287,4.3287,4.3287,0,0,4.32,4.321,4.3209,4.3218,4.3224,4.3224,4.3242,4.3241,4.3241,4.326,4.3258,4.3264,4.3272,4.3266,4.3264,4.327,4.325,4.3259,4.3257,4.3257,4.3253,4.3249,4.3246,4.3286,4.3287,4.3287,0,0,4.3177,4.3185,4.3181,4.3187,4.3196,4.3206,4.3205,4.3217,4.3222,4.322,4.3234,4.3234,4.3237,4.3242,4.3245,4.3224,4.3234,4.3224,4.3209,4.3204,4.3201,4.3199,4.3191,4.3188,4.3223,4.3223,4.3223,0,4.316,4.3162,4.3177,4.3176,4.3179,4.3197,4.3192,4.3197,4.3206,4.3208,4.3215,4.3219,4.3226,4.3221,4.3216,4.3218,4.3216,4.3223,4.32,4.3198,4.3196,4.3188,4.3185,4.3222,4.3222,4.3222,4.3222,0,4.314,4.3141,4.3136,4.3146,4.3148,4.3145,4.3159,4.316,4.3169,4.3178,4.3175,4.3184,4.3188,4.3188,4.3197,4.3184,4.3188,4.3198,4.3211,4.3191,4.3184,4.3181,4.322,4.322,4.3221,4.3221,0,0,4.3102,4.312,4.3118,4.3122,4.3134,4.3135,4.3132,4.3137,4.3137,4.3143,4.3141,4.3143,4.3152,4.3156,4.3165,4.3161,4.3144,4.3172,4.3172,4.3165,4.3129,4.3121,4.3118,4.3151,4.315,4.315,4.3129,0,4.3081,4.3078,4.3092,4.3086,4.3086,4.3103,4.3101,4.3108,4.3116,4.3117,4.3126,4.3127,4.3139,4.3141,4.3138,4.3146,4.3136,4.3148,4.3148,4.3148,4.3145,4.3114,4.3106,4.3085,4.3126,4.3126,4.3125,0,4.3056,4.3061,4.3055,4.3067,4.3068,4.3066,4.3071,4.3072,4.308,4.3086,4.309,4.3101,4.3099,4.3112,4.3109,4.3116,4.3117,4.3121,4.3121,4.3121,4.3135,4.3113,4.3079,4.3076,4.3121,4.3122,4.3122,0,4.3028,4.3033,4.303,4.3033,4.3048,4.3046,4.3052,4.306,4.3062,4.3067,4.3068,4.3072,4.3074,4.3076,4.3088,4.3097,4.3083,4.3098,4.3088,4.3087,4.3083,4.3083,4.3049,4.3085,4.3085,4.3085,4.3085,0,4.3002,4.2998,4.3018,4.3016,4.3011,4.3026,4.3021,4.3028,4.3036,4.3035,4.305,4.3049,4.3065,4.3065,4.3075,4.307,4.3071,4.3075,4.3078,4.3074,4.3073,4.3074,4.3075,4.3084,4.3085,4.3085,4.3085,0,4.297,4.2983,4.2981,4.2995,4.2998,4.2994,4.3005,4.3004,4.3013,4.3012,4.3012,4.3026,4.3028,4.304,4.3044,4.305,4.3042,4.3047,4.3039,4.3041,4.303,4.303,4.2994,4.2989,4.3029,4.3029,4.3028,0,4.2952,4.2949,4.2963,4.2964,4.2969,4.297,4.2973,4.2988,4.2989,4.2998,4.2995,4.2998,4.3001,4.3002,4.3012,4.3015,4.302,4.3007,4.302,4.3016,4.3019,4.3019,4.3018,4.3004,4.3003,4.3003,4.3003,0,4.2919,4.2926,4.2929,4.2935,4.2937,4.2942,4.2947,4.2947,4.2964,4.2965,4.2967,4.2969,4.2973,4.2975,4.298,4.2985,4.2996,4.2998,4.2996,4.2991,4.2987,4.2988,4.303,4.2999,4.2999,4.3,4.3,4.3,4.2893,4.2891,4.2901,4.2904,4.291,4.2915,4.2914,4.2923,4.2925,4.293,4.2939,4.2939,4.2947,4.2954,4.2959,4.2959,4.2965,4.2962,4.2961,4.296,4.2958,4.2987,4.296,4.296,4.296,4.296,4.296,0,4.2861,4.2868,4.2871,4.2878,4.288,4.2892,4.2898,4.2899,4.2899,4.2906,4.2909,4.2911,4.2913,4.2923,4.2926,4.2924,4.2929,4.2925,4.2924,4.2925,4.2952,4.2953,4.292,4.292,4.292,4.292,4.292,4.292,4.2844,4.2841,4.2849,4.2849,4.2856,4.2857,4.286,4.2864,4.287,4.2871,4.2873,4.2881,4.2888,4.2892,4.2895,4.2898,4.2898,4.2891,4.2895,4.292,4.2924,4.2927,4.2928,4.2891,4.2891,4.2869,4.2869,4.2868]}]]